Regional Weather Roundup
Issued by NWS

Home | Current Version | Previous Version | Graphics & Text | Print | Product List | Glossary On
Versions: 1 2 3 4 5 6 7 8 9 10 11 12 13 14 15 16 17 18 19 20 21 22 23 24 25 26 27
000
ASUS45 KBOU 270407
RWRCO

WEATHER ROUNDUP FOR COLORADO
NATIONAL WEATHER SERVICE DENVER/BOULDER CO
1000 PM MDT SUN MAR 26 2017

NOTE: "FAIR" INDICATES FEW OR NO CLOUDS BELOW 12000 FEET WITH NO
SIGNIFICANT WEATHER AND/OR OBSTRUCTIONS TO VISIBILITY.

COZ001>005-013-030-031-270500-
...NORTHWEST COLORADO...

CITY           SKY/WX    TMP DP  RH WIND       PRES   REMARKS
CRAIG          FAIR      34  25  69 CALM      29.99R
HAYDEN         FAIR      39  23  52 SE3       30.00R
MEEKER         FAIR      37  26  64 NE6       29.99R
MOUNT WERNER   NOT AVBL
STEAMBOAT SPGS FAIR      36  28  73 W3        30.00R
WALDEN         NOT AVBL
$$

COZ006>008-011-270500-
...WEST CENTRAL VALLEYS...

CITY           SKY/WX    TMP DP  RH WIND       PRES   REMARKS
GRAND JUNCTION FAIR      49  24  37 N8        29.97R
MONTROSE       FAIR      43  35  73 E5        30.00R
EAGLE          CLOUDY    43  23  45 E6        30.01R
RIFLE          FAIR      43  29  57 NE6       29.98R
DELTA          FAIR      52  33  47 CALM      29.98R
NUCLA          FAIR      45  32  61 E5        30.04R
$$

COZ017>023-064>068-270500-
...SOUTHWEST COLORADO...

CITY           SKY/WX    TMP DP  RH WIND       PRES   REMARKS
DURANGO        FAIR      45  27  49 SW8       30.01R
CORTEZ         FAIR      43  33  68 NE5       30.02R
PAGOSA SPRINGS FAIR      38  37  94 CALM      30.06R
TELLURIDE      FAIR      34  28  78 CALM      30.10R
WOLF CREEK PAS CLOUDY    23  23 100 S15G22    30.17F WCI  10
$$

COZ009-010-012-014-032>034-037-058>063-270500-
...CENTRAL COLORADO...

CITY           SKY/WX    TMP DP  RH WIND       PRES   REMARKS
ASPEN          FAIR      35  26  69 SW8       30.01S WCI  29
BUENA VISTA    FAIR      41  17  38 S7        30.01R
COPPER MTN     NOT AVBL
BERTHOUD PASS  CLOUDY    18   7  62 W20G28    30.08S WCI   1
COTTONWOOD PAS FAIR      37  18  44 SW16G23   30.05S
GUNNISON       FAIR      35  26  69 N8        30.04R WCI  29
KREMMLING      FAIR      41  30  65 CALM      30.02S
LEADVILLE      FAIR      29  20  69 N5        30.04S WCI  24
MONARCH PASS   CLOUDY    23  21  93 SW20G26   30.20F WCI   8
SALIDA         FAIR      42  33  69 S3        30.07S
SUNLIGHT       FAIR      25  21  86 SW10      30.12R WCI  15
WILKERSON PASS CLOUDY    28  27  93 SW3       30.10S FOG
$$

COZ069>075-270500-
...SAN LUIS VALLEY/SANGRE DE CRISTO MOUNTAINS...

CITY           SKY/WX    TMP DP  RH WIND       PRES   REMARKS
ALAMOSA        FAIR      40  31  70 NE8       30.00R
LA VETA PASS   NOT AVBL
SAGUACHE       FAIR      37  23  56 N15       30.02S
$$

COZ035-036-038>040-270500-
...NORTHERN COLORADO FRONT RANGE...

CITY           SKY/WX    TMP DP  RH WIND       PRES   REMARKS
DENVER INTL AP FAIR      44  35  70 E3        29.98S
DMNS CITY PARK   N/A     45  38  76 NE2       29.98S
AURORA         MOCLDY    44  40  86 CALM      29.99S
FRONT RANGE AP NOT AVBL
ERIE MUNI ARPT FAIR      40  38  93 CALM      29.98S
BOULDER MUN AP CLOUDY    45  41  87 CALM      29.98R
CENTENNIAL     FAIR      44  36  73 CALM      29.99S
BROOMFIELD     MOCLDY    43  39  87 CALM      29.99S
FORT COLLINS   FAIR      44  40  85 E5        29.99R
LONGMONT       CLOUDY    45  42  89 CALM      30.00S
$$

COZ041-046-047-076>085-087-088-270500-
...PIKES PEAK/PALMER DIVIDE AND SOUTHERN FOOTHILLS...

CITY           SKY/WX    TMP DP  RH WIND       PRES   REMARKS
COLO. SPRINGS  CLOUDY    44  37  76 SW6       30.01S
A. F. ACADEMY  CLOUDY    42  37  80 NW3       30.00S
SCHRIEVER AFB  MOCLDY    42  36  81 CALM      30.01S
ELLICOTT         N/A    N/A N/A N/A S5        30.00R
FALCON         CLOUDY    39  37  91 CALM      30.02S
FORT CARSON    CLOUDY    45  39  81 SW8       29.99S
LIMON          FAIR      32  31  96 NW3       29.98F
MONUMENT HILL  MOCLDY    36  32  87 CALM      30.02S
TRINIDAD       FAIR      40  36  86 SE3       30.01S
$$

COZ042>045-048>051-090-091-270500-
...NORTHEAST COLORADO...

CITY           SKY/WX    TMP DP  RH WIND       PRES   REMARKS
GREELEY ARPT   FAIR      38  32  79 NE5       29.99R
AKRON          FAIR      38  34  85 NW10      29.96S
BURLINGTON     FAIR      36  36 100 SW8       29.96R
WRAY           MOCLDY    43  36  75 CALM      29.95S
STERLING       FAIR      39  36  87 NW8       29.95S
HOLYOKE        FAIR      45  37  76 W10       29.95R
FORT MORGAN    FAIR      38  33  81 N9        29.98R
$$

COZ086-089-092>099-270500-
...SOUTHEAST COLORADO...

CITY           SKY/WX    TMP DP  RH WIND       PRES   REMARKS
PUEBLO         CLOUDY    48  39  71 SE6       29.99R
LA JUNTA       FAIR      43  38  82 S7        29.98S
LAMAR          FAIR      34  32  92 S8        29.97R WCI  27
SPRINGFIELD      N/A     36  34  92 N9        29.98S
$$




USA.gov is the U.S. government's official web portal to all federal, state and local government web resources and services.